This is the latest recevied weather packets stored in our database for station/object 9A3SWO. If no packets are shown the sender has not sent any weather packets the latest 10 day(s).
| Time | Temp. | Humidity | Pressure | Rain* | Wind** | Luminosity | Snow |
|---|---|---|---|---|---|---|---|
| 1787434678 | 23.33° C | 55% | 1021.3 hPa | - | - | - | - |
| 1787434079 | 23.33° C | 55% | 1021.3 hPa | - | - | - | - |
| 1787433480 | 23.33° C | 55% | 1021.4 hPa | - | - | - | - |
| 1787432879 | 23.33° C | 54% | 1021.3 hPa | - | - | - | - |
| 1787432280 | 23.33° C | 54% | 1021.2 hPa | - | - | - | - |
| 1787431679 | 23.33° C | 55% | 1021.2 hPa | - | - | - | - |
| 1787431078 | 23.89° C | 54% | 1021.1 hPa | - | - | - | - |
| 1787430479 | 23.89° C | 54% | 1021.1 hPa | - | - | - | - |
| 1787429878 | 23.89° C | 54% | 1021.1 hPa | - | - | - | - |
| 1787429278 | 24.44° C | 53% | 1020.9 hPa | - | - | - | - |
| 1787428678 | 24.44° C | 52% | 1020.9 hPa | - | - | - | - |
| 1787428078 | 25° C | 52% | 1021 hPa | - | - | - | - |
| 1787427479 | 24.44° C | 52% | 1020.9 hPa | - | - | - | - |
| 1787426878 | 24.44° C | 53% | 1020.8 hPa | - | - | - | - |
| 1787426278 | 24.44° C | 54% | 1020.8 hPa | - | - | - | - |
| 1787425678 | 24.44° C | 54% | 1020.6 hPa | - | - | - | - |
| 1787425078 | 24.44° C | 54% | 1020.5 hPa | - | - | - | - |
| 1787424478 | 24.44° C | 54% | 1020.5 hPa | - | - | - | - |
| 1787423878 | 23.89° C | 55% | 1020.3 hPa | - | - | - | - |
| 1787423278 | 23.89° C | 56% | 1020.3 hPa | - | - | - | - |
| 1787422678 | 22.78° C | 57% | 1020.2 hPa | - | - | - | - |
| 1787422078 | 22.78° C | 57% | 1020 hPa | - | - | - | - |
| 1787421477 | 23.33° C | 56% | 1019.8 hPa | - | - | - | - |
| 1787420878 | 23.33° C | 56% | 1019.7 hPa | - | - | - | - |
| 1787420278 | 23.33° C | 57% | 1019.5 hPa | - | - | - | - |
* Rain since midnight (hover to see other rain measurements)
** Current wind speed in m/s (hover to see current wind gust speed)